Home   Weather   USA   Chicago   Past weeks
Flag for USA

Past Weather in Chicago, Illinois, USA — February 2018

Currently: 56 °F. Overcast. (Weather station: Chicago Midway Airport, USA). See more current weather

February 2018 Weather in Chicago — Graph

°F

High & Low Weather Summary for February 2018

 TemperatureHumidityPressure
High66 °F (Feb 20, 11:53 am)100% (Feb 14, 7:01 pm)30.83 "Hg (Feb 14, 7:01 pm)
Low-1 °F (Feb 5, 4:53 am)33% (Feb 3, 3:53 pm)29.45 "Hg (Feb 24, 11:53 pm)
Average31 °F76%30.16 "Hg
* Reported Feb 1 12:53 am — Feb 28 11:53 pm, Chicago. Weather by CustomWeather, © 2024

Note: Actual official high and low records may vary slightly from our data, if they occured in-between our weather recording intervals... More about our weather records

Chicago Weather History for February 1, 2018

Scroll right to see more
 ConditionsComfort  
Time TempWeatherWind HumidityBarometerVisibility
12:53 am
Thu, Feb 1
36 °FMostly cloudy.8 mph64%29.82 "Hg10 mi
1:53 am34 °FMostly cloudy.9 mph67%29.84 "Hg10 mi
2:53 am34 °FMostly cloudy.9 mph67%29.82 "Hg10 mi
3:53 am34 °FPassing clouds.14 mph70%29.83 "Hg10 mi
4:53 am33 °FPassing clouds.12 mph72%29.85 "Hg10 mi
5:53 am33 °FPassing clouds.12 mph72%29.88 "Hg10 mi
6:53 am31 °FPassing clouds.16 mph73%29.93 "Hg10 mi
7:53 am28 °FBroken clouds.18 mph64%29.97 "Hg10 mi
8:53 am25 °FBroken clouds.18 mph50%30.03 "Hg10 mi
9:53 am24 °FPartly sunny.17 mph46%30.10 "Hg10 mi
10:53 am21 °FBroken clouds.21 mph43%30.14 "Hg10 mi
11:53 am20 °FPartly sunny.17 mph38%30.16 "Hg10 mi
12:53 pm20 °FPassing clouds.17 mph34%30.16 "Hg10 mi
1:53 pm20 °FPassing clouds.16 mph38%30.19 "Hg10 mi
2:53 pm19 °FPassing clouds.18 mph38%30.21 "Hg10 mi
3:53 pm17 °FPassing clouds.15 mph39%30.25 "Hg10 mi
4:53 pm16 °FPassing clouds.13 mph43%30.28 "Hg10 mi
5:53 pm15 °FPassing clouds.18 mph40%30.31 "Hg10 mi
6:53 pm14 °FPassing clouds.14 mph42%30.36 "Hg10 mi
7:53 pm13 °FClear.15 mph44%30.38 "Hg10 mi
8:53 pm13 °FClear.13 mph44%30.41 "Hg10 mi
9:53 pm12 °FClear.16 mph44%30.44 "Hg10 mi
10:53 pm11 °FClear.15 mph46%30.46 "Hg10 mi
11:53 pm9 °FClear.18 mph47%30.48 "Hg10 mi
Weather by CustomWeather, © 2024

See weather overview